Mosby, MO

3:59 PM CST on November 13, 2019 (GMT -0600)
Clay County Regional

Weather History for KGPH - August, 2019

Change the Weather History Date:

Sunday, August 25, 2019

  Actual Average (KMKC) Record (KMKC)
Temperature  
Mean Temperature 68 °F -  
Max Temperature 69 °F 86 °F 105 °F (2003)
Min Temperature 66 °F 68 °F 57 °F (2010)
Cooling Degree Days 2    
Growing Degree Days 18 (Base 50)    
Moisture  
Dew Point 62 °F    
Average Humidity 82    
Maximum Humidity 94    
Minimum Humidity 68    
Precipitation  
Precipitation 0.00 in - - ()
Sea Level Pressure  
Sea Level Pressure 29.90 in    
Wind  
Wind Speed 1 mph ()    
Max Wind Speed 10 mph    
Max Gust Speed -    
Visibility 9.5 miles    
Events Rain , Thunderstorm    
Averages and records for this station are not official NWS values.
T = Trace of Precipitation, MM = Missing Value Source: Averaged Metar Reports

Daily Weather History Graph

Daily Weather History Graph

Search for Another Location

Airport or City:

Astronomy

Aug. 25, 2019 Rise Set
Actual Time 6:39 AM CDT 7:58 PM CDT
Civil Twilight 6:11 AM CDT 8:26 PM CDT
Nautical Twilight 5:37 AM CDT 9:00 PM CDT
Astronomical Twilight 5:02 AM CDT 9:35 PM CDT
Moon 1:15 AM CDT (8/25) 4:19 PM CDT (8/25)
Length of Visible Light 14h 15m
Length of Day
13h 19m
Waning Crescent, 29% of the Moon is Illuminated
Aug 25
Waning Crescent
Aug 30
New
Sep 5
First Quarter
Sep 13
Full
Sep 21
Last Quarter

Hourly Weather History & Observations

Time (CDT) Temp. Dew Point Humidity Pressure Visibility Wind Dir Wind Speed Gust Speed Precip Events Conditions
12:35 AM 69.8 °F 60.8 °F 73% 30.04 in 10.0 mi Calm Calm - N/A   Overcast
12:55 AM 69.8 °F 59.0 °F 68% 30.03 in 10.0 mi Calm Calm - N/A   Overcast
1:15 AM 69.8 °F 59.0 °F 68% 30.03 in 10.0 mi Calm Calm - N/A   Overcast
1:35 AM 69.8 °F 59.0 °F 68% 30.02 in 10.0 mi Calm Calm - N/A   Overcast
1:55 AM 69.8 °F 59.0 °F 68% 30.01 in 10.0 mi Calm Calm - N/A   Overcast
2:55 AM 68.0 °F 59.0 °F 73% 29.99 in 10.0 mi Calm Calm - N/A   Overcast
3:15 AM 68.0 °F 59.0 °F 73% 29.98 in 10.0 mi Calm Calm - N/A   Overcast
3:35 AM 68.0 °F 59.0 °F 73% 29.98 in 10.0 mi SE 3.5 mph - N/A   Overcast
3:55 AM 68.0 °F 59.0 °F 73% 29.99 in 10.0 mi Calm Calm - N/A   Overcast
4:15 AM 68.0 °F 59.0 °F 73% 29.99 in 10.0 mi Calm Calm - N/A   Overcast
4:35 AM 68.0 °F 59.0 °F 73% 29.97 in 10.0 mi Calm Calm - N/A   Overcast
4:55 AM 68.0 °F 59.0 °F 73% 29.96 in 10.0 mi Calm Calm - N/A   Overcast
5:15 AM 68.0 °F 59.0 °F 73% 29.96 in 10.0 mi Calm Calm - N/A   Overcast
5:35 AM 68.0 °F 59.0 °F 73% 29.94 in 10.0 mi Calm Calm - N/A   Overcast
5:55 AM 68.0 °F 59.0 °F 73% 29.95 in 10.0 mi Calm Calm - N/A   Overcast
6:15 AM 68.0 °F 59.0 °F 73% 29.93 in 10.0 mi Calm Calm - N/A   Overcast
6:35 AM 68.0 °F 59.0 °F 73% 29.92 in 10.0 mi SE 9.2 mph - N/A   Overcast
6:55 AM 68.0 °F 60.8 °F 78% 29.91 in 10.0 mi Calm Calm - N/A   Overcast
7:15 AM 68.0 °F 60.8 °F 78% 29.91 in 10.0 mi Calm Calm - N/A Thunderstorm Overcast
7:35 AM 68.0 °F 60.8 °F 78% 29.92 in 10.0 mi Calm Calm - N/A   Overcast
7:55 AM 68.0 °F 60.8 °F 78% 29.92 in 10.0 mi Calm Calm - N/A   Overcast
8:15 AM 68.0 °F 60.8 °F 78% 29.94 in 10.0 mi Calm Calm - N/A   Overcast
8:35 AM 68.0 °F 60.8 °F 78% 29.95 in 10.0 mi Calm Calm - N/A Thunderstorm Overcast
9:15 AM 66.2 °F 60.8 °F 83% 29.94 in 10.0 mi Calm Calm - N/A   Overcast
9:35 AM 66.2 °F 60.8 °F 83% 29.95 in 10.0 mi Calm Calm - N/A Thunderstorm Overcast
10:35 AM 66.2 °F 62.6 °F 88% 29.93 in 10.0 mi Calm Calm - N/A   Overcast
10:55 AM 66.2 °F 62.6 °F 88% 29.92 in 10.0 mi Calm Calm - N/A Thunderstorm Overcast
11:15 AM 68.0 °F 62.6 °F 83% 29.92 in 10.0 mi East 5.8 mph - N/A   Overcast
11:35 AM 68.0 °F 62.6 °F 83% 29.91 in 10.0 mi Calm Calm - N/A   Overcast
11:55 AM 68.0 °F 62.6 °F 83% 29.91 in 10.0 mi Calm Calm - N/A   Overcast
12:15 PM 68.0 °F 62.6 °F 83% 29.91 in 10.0 mi Calm Calm - N/A   Overcast
12:35 PM 68.0 °F 62.6 °F 83% 29.92 in 10.0 mi Calm Calm - N/A   Overcast
1:15 PM 68.0 °F 64.4 °F 88% 29.90 in 10.0 mi Calm Calm - N/A   Light Drizzle
1:35 PM 68.0 °F 64.4 °F 88% 29.89 in 10.0 mi Calm Calm - N/A Rain Light Rain
1:55 PM 68.0 °F 64.4 °F 88% 29.89 in 10.0 mi Calm Calm - N/A   Light Drizzle
2:15 PM 68.0 °F 64.4 °F 88% 29.89 in 5.0 mi Calm Calm - N/A   Drizzle
2:35 PM 68.0 °F 64.4 °F 88% 29.87 in 1.2 mi Calm Calm - N/A Rain Rain
3:15 PM 68.0 °F 66.2 °F 94% 29.85 in 10.0 mi Calm Calm - N/A Thunderstorm Mostly Cloudy
3:55 PM 68.0 °F 66.2 °F 94% 29.83 in 10.0 mi ENE 3.5 mph - N/A Rain Light Rain
4:35 PM 68.0 °F 66.2 °F 94% 29.81 in 7.0 mi Calm Calm - N/A Rain Light Rain
4:55 PM 68.0 °F 66.2 °F 94% 29.80 in 5.0 mi Calm Calm - N/A Rain Heavy Rain
6:35 PM 69.8 °F 68.0 °F 94% 29.80 in 7.0 mi Calm Calm - N/A   Drizzle
6:55 PM 69.8 °F 68.0 °F 94% 29.80 in 7.0 mi Calm Calm - N/A   Light Drizzle
7:35 PM 68.0 °F 66.2 °F 94% 29.80 in 10.0 mi NE 10.4 mph - N/A   Overcast
7:55 PM 68.0 °F 66.2 °F 94% 29.80 in 10.0 mi NE 3.5 mph - N/A   Overcast
8:15 PM 68.0 °F 64.4 °F 88% 29.81 in 10.0 mi NE 5.8 mph - N/A   Overcast
8:35 PM 68.0 °F 64.4 °F 88% 29.80 in 10.0 mi NE 5.8 mph - N/A   Overcast
8:55 PM 68.0 °F 64.4 °F 88% 29.81 in 10.0 mi Calm Calm - N/A   Overcast
9:15 PM 68.0 °F 64.4 °F 88% 29.81 in 10.0 mi Calm Calm - N/A   Overcast
9:35 PM 68.0 °F 64.4 °F 88% 29.82 in 10.0 mi Calm Calm - N/A   Overcast
9:55 PM 68.0 °F 64.4 °F 88% 29.82 in 10.0 mi Calm Calm - N/A   Overcast
10:15 PM 68.0 °F 64.4 °F 88% 29.83 in 10.0 mi Calm Calm - N/A   Overcast
10:35 PM 68.0 °F 64.4 °F 88% 29.83 in 10.0 mi Calm Calm - N/A   Overcast
10:55 PM 68.0 °F 64.4 °F 88% 29.83 in 10.0 mi Calm Calm - N/A   Overcast
11:15 PM 68.0 °F 64.4 °F 88% 29.83 in 10.0 mi Calm Calm - N/A   Overcast
11:55 PM 68.0 °F 64.4 °F 88% 29.82 in 10.0 mi Calm Calm - N/A   Overcast